Skip Page Navigation
NASA JPL Caltech
NASA Logo - Jet Propulsion Laboratory + View the NASA Portal
+ Center for Near-Earth Object Studies
JPL Home Earth Solar System Stars & Galaxies Technology
JPL Solar System Dynamics
BODIES ORBITS EPHEMERIDES TOOLS PHYSICAL DATA DISCOVERY FAQ SITE MAP
IMPORTANT: The SSD Announcement email list is now available. Major changes are coming in the near future, including possible hostname and/or URL changes. To be notified of such changes, subscribe to this email list.

Please visit this page for more details.


JPL Small-Body Database Browser
Search: [ help ]  
212695 (2007 PQ38)
Classification: Inner Main-belt Asteroid          SPK-ID: 2212695
Ephemeris | Orbit Diagram | Orbital Elements | Mission Design | Physical Parameters | Discovery Circumstances | Close-Approach Data ]

[ show orbit diagram ]
Orbital Elements at Epoch 2458600.5 (2019-Apr-27.0) TDB
Reference: JPL 10 (heliocentric ecliptic J2000)
 Element Value Uncertainty (1-sigma)   Units 
e .1073012351232452 6.2781e-08  
a 1.908321931351489 1.2986e-08 au
q 1.703556631104698 1.2001e-07 au
i 19.59765929464477 1.6734e-05 deg
node 336.6501824157234 1.443e-05 deg
peri 257.8041147558964 9.2953e-05 deg
M 231.8335837898615 9.0327e-05 deg
tp 2458943.305379900991
(2020-Apr-03.80537990)
0.00024074 TDB
period 962.8882542991369
2.64
9.8288e-06
2.691e-08
d
yr
n .3738751598564626 3.8164e-09 deg/d
Q 2.113087231598281 1.438e-08 au
  Orbit Determination Parameters
   # obs. used (total)      250  
   data-arc span      6487 days (17.76 yr)  
   first obs. used      2001-02-22  
   last obs. used      2018-11-27  
   planetary ephem.      DE431  
   SB-pert. ephem.      SB431-N16  
   condition code      0  
   norm. resid. RMS      .58578  
   source      ORB  
   producer      Otto Matic  
   solution date      2019-Jul-14 09:40:50  

Additional Information
 Earth MOID = .791974 au 
 Jupiter MOID = 2.9872 au 
 T_jup = 3.861 
[ show covariance matrix ]

Ephemeris | Orbit Diagram | Orbital Elements | Mission Design | Physical Parameters | Discovery Circumstances | Close-Approach Data ]

Physical Parameter Table
Parameter Symbol Value Units Sigma Reference Notes
absolute magnitude H 17.5   n/a MPO352309  

212695 (2007 PQ38)          Discovered 2007-Aug-14 by Siding Spring Survey at Siding Spring
Reference: 20090409/Numbers.arcLast Updated: 2009-04-10

[ show close-approach data ]
Alternate Designations
 2007 PQ38 = 2002 SF3 
Ephemeris | Orbit Diagram | Orbital Elements | Mission Design | Physical Parameters | Discovery Circumstances | Close-Approach Data ]
ABOUT SSD CREDITS/AWARDS PRIVACY/COPYRIGHT GLOSSARY LINKS
FirstGov
(server date/time)  
NASA Home Page
Site Manager:   Ryan S. Park
Webmaster  Alan B. Chamberlin